This demonstration page uses our WeatherBlox Daily Observations layout. Learn more.

Left ArrowRight Arrow

Hourly Observations for January 26, 2017

Temp ( °F °C ) Dew Point ( °F °C ) Humidity (%) Winds ( mph kmh ) Pressure ( in mb ) Visibility ( mi km ) Precip ( " mm )
12:53 am 00:53 Cloudy 23 -5 16 -8.9 74 74 NW 15 24 30.15 1021 10 16 0.00 0.00
1:53 am 01:53 Cloudy 23 -5 16 -8.9 74 74 NW 15 24 30.15 1021 10 16 0.00 0.00
2:53 am 02:53 Cloudy 23 -5 17 -8.3 78 78 NW 14 22 30.16 1021 10 16 0.00 0.00
3:53 am 03:53 Cloudy with Light Snow 24 -4.4 17 -8.3 75 75 NW 17 28 30.17 1022 10 16 0.00 0.03
4:53 am 04:53 Cloudy 24 -4.4 17 -8.3 75 75 NW 15 24 30.17 1022 10 16 0.00 0.03
5:53 am 05:53 Cloudy 24 -4.4 17 -8.3 75 75 NW 17 28 30.19 1022 10 16 0.00 0.00
6:53 am 06:53 Mostly Cloudy 23 -5 16 -8.9 74 74 NW 14 22 30.20 1023 10 16 0.00 0.00
7:53 am 07:53 Sunny 21 -6.1 15 -9.4 78 78 NW 14 22 30.22 1023 10 16 0.00 0.00
8:53 am 08:53 Sunny 22 -5.6 15 -9.4 75 75 NW 14 22 30.23 1024 10 16 0.00 0.00
9:53 am 09:53 Sunny 24 -4.4 15 -9.4 68 68 NW 21 33 30.24 1024 10 16 0.00 0.00
10:53 am 10:53 Sunny 26 -3.3 16 -8.9 66 66 NW 16 26 30.25 1024 10 16 0.00 0.00
11:53 am 11:53 Sunny 28 -2.2 17 -8.3 63 63 NNW 13 20 30.24 1024 10 16 0.00 0.00
12:53 pm 12:53 Sunny 29 -1.7 18 -7.8 63 63 NW 15 24 30.22 1024 10 16 0.00 0.00
1:53 pm 13:53 Sunny 30 -1.1 19 -7.2 64 64 NW 14 22 30.21 1023 10 16 0.00 0.00
2:53 pm 14:53 Sunny 31 -0.6 18 -7.8 59 59 NW 16 26 30.21 1023 10 16 0.00 0.00
3:53 pm 15:53 Sunny 31 -0.6 18 -7.8 59 59 NW 15 24 30.22 1023 10 16 0.00 0.00
4:53 pm 16:53 Sunny 31 -0.6 18 -7.8 59 59 NW 15 24 30.22 1023 10 16 0.00 0.00
5:53 pm 17:53 Mostly Cloudy 30 -1.1 19 -7.2 64 64 NW 10 17 30.22 1023 10 16 0.00 0.00
6:53 pm 18:53 Clear 28 -2.2 19 -7.2 69 69 NW 12 19 30.23 1024 10 16 0.00 0.00
7:53 pm 19:53 Clear 27 -2.8 18 -7.8 69 69 WNW 13 20 30.24 1024 10 16 0.00 0.00
8:53 pm 20:53 Clear 26 -3.3 18 -7.8 71 71 WNW 13 20 30.24 1024 10 16 0.00 0.00
9:53 pm 21:53 Clear 26 -3.3 18 -7.8 71 71 WNW 16 26 30.22 1024 10 16 0.00 0.00
10:53 pm 22:53 Clear 26 -3.3 17 -8.3 69 69 WNW 16 26 30.23 1024 10 16 0.00 0.00
11:53 pm 23:53 Clear 24 -4.4 16 -8.9 71 71 WNW 16 26 30.23 1024 10 16 0.00 0.00

Powered by AerisWeather